7 * 24
多渠道服务支持
ONEWEB-0248是英国OneWeb星座项目中的一颗低轨通信卫星,于2021年5月28日发射升空。该卫星运行在约1200公里的近地轨道,属于OneWeb一期星座组网卫星,采用"弯管式"设计,依托全球布设的关口站实现信号转发。作为低轨卫星互联网星座的组成部分,它可为全球偏远地区、海洋等提供低延迟、高带宽的互联网接入服务,同时也具备潜在的军事应用价值,且接近寿命末期时会自动离轨,符合空间碎片防控规范。
英国
(GB)
| 数据来源 | 国际轨道数据 | AOE轨道数据 |
| 星历时间 | 2026-09-10T20:35:46+0800 1天前 查看轨道信息 | 2026-09-10T16:00:00+0800 1天前 查看轨道信息 |
| 半长轴 | 7579.905km | 7579.902km |
| 偏心率 | 0.0002048 | 0.0002288 |
| 轨道倾角 | 87.898° | 87.898° |
| 近地点辐角 | 71.924° | 77.628° |
| 升交点赤经 | 242.180° | 242.220° |
| 平近点角 | 288.212° | 96.052° |
| 近地点 | 1200.215km | 1200.03km |
| 远地点 | 1203.321km | 1203.5km |
| 周期 | 109.460分钟 | 109.460分钟 |
| 每日圈数 | 13.155494 | 13.155503 |
| 事件ID | 空间交会对象 | 最接近时刻(TCA) | 交会距离 | 交会风险概率(CRP) | 交会风险指数(CRI) | 操作 |
|---|---|---|---|---|---|---|
| CDM_260913-164402-127704-879821 |
DELTA 1 DEB
(21277)
ONEWEB-0248
(48798) | 2026-09-13T 16:44:17+0000 |
1.245 km
极远距离 | 1.195106E-5 中风险 | 0.57 |